Location: *
(51.0333°S, 178.4667°E)
Time: 02:32:10
(UTC+00:00)

USA 81 - Pass Details

Date: 15 November 2019
Orbit: 785 x 788 km, 85.0° (Epoch: 29 November)

Event Time Altitude Azimuth Distance (km) Brightness Sun altitude
Rises 09:25:48 0° 188° (S) 3,326 8.5 -13.6°
Reaches altitude 10° 09:28:12 10° 188° (S) 2,391 7.6 -13.8°
Maximum altitude 09:33:35 82° 274° (W) 815 4.1 -14.3°
Enters shadow 09:37:47 17° 0° (N) 1,936 5.6 -14.6°
